Terminal Aerodrome Forecast
Issued by NWS

Home | Current Version | Previous Version | Graphics & Text | Print | Product List | Glossary On
Versions: 1 2 3 4 5 6 7 8 9 10 11 12 13 14 15 16 17 18 19 20 21 22 23 24 25 26 27 28
000
FTUS42 KMHX 032320
TAFOAJ
TAF
KOAJ 032320Z 0400/0424 VRB05KT P6SM SCT060 SCT250
     FM040600 00000KT 4SM BR SKC
     FM040900 00000KT 1SM BR SCT003
     FM041300 VRB03KT 4SM BR SCT010
     FM041400 01005KT P6SM SCT050
      AMD LTD TO CLD VIS AND WIND=

USA.gov is the U.S. government's official web portal to all federal, state and local government web resources and services.